15 daagse weersverwachting Allschwil (CH)

  • Overzicht
  • Per uur
  • 15 dagen
  • Extra
  • Vergelijk
  • Kaarten
  • Dagkaart
  • Meer »
  • Info
  • Statistieken
  • Directe link
    Temp 6h Neerslag Wind  
 05:33     21:30    Daglengte: 15:57 Vandaag
08:00
18°
3.0 mm
1
14:00
22°
7.1 mm
3
warningclass
20:00
22°
3.6 mm
3
 05:34     21:31    Daglengte: 15:57 Morgen
02:00
17°
 
1
08:00
17°
 
2
14:00
23°
 
3
20:00
21°
3.2 mm
2
 05:34     21:31    Daglengte: 15:57 Zaterdag 22 Jun
02:00
16°
4.1 mm
1
08:00
16°
 
1
14:00
21°
6.7 mm
2
20:00
20°
24.1 mm
1
warningclass
Locatie info
Region: Arlesheim
Latitude: 47.5516°N
Longitude: 7.5381°E
288 masl
Postcode: 4123
Temp/Neerslag /Baro Onweer/Dauwpunt
    Temp Baro 1h Neerslag Dauwpunt Wind UV Bewolking  
 05:33     21:30    Daglengte: 15:57 Vandaag
04:00
18°
1013.3 hPa
49%
15.5°
2
Windvlaag: 1.5 km/h
74%
05:00
18°
1013.4 hPa 0.5 mm
80%
15.4°
2
Windvlaag: 1.4 km/h
67% warningclass
06:00
17°
1013.6 hPa 1.3 mm
79%
15.3°
2
Windvlaag: 1.8 km/h
78% warningclass
07:00
18°
1013.9 hPa 1.2 mm
80%
16.0°
2
Windvlaag: 1.2 km/h
82%
08:00
18°
1014.1 hPa
26%
16.2°
1
Windvlaag: 1.2 km/h
81%
09:00
19°
1014.3 hPa
26%
16.1°
2
Windvlaag: 1.6 km/h
87%
10:00
20°
1014.4 hPa 2.2 mm
72%
15.8°
2
Windvlaag: 1.4 km/h
83%
11:00
20°
1014.6 hPa 1.1 mm
74%
16.4°
2
Windvlaag: 1.5 km/h
77%
12:00
21°
1014.7 hPa
82%
16.7°
2
Windvlaag: 1.7 km/h
71%
13:00
21°
1014.6 hPa 2.3 mm
80%
16.9°
2
Windvlaag: 2.4 km/h
67%
14:00
22°
1014.3 hPa 1.5 mm
78%
16.9°
3
Windvlaag: 0.8 km/h
36% warningclass
15:00
23°
1014.2 hPa 1.9 mm
82%
16.4°
3
Windvlaag: 0.5 km/h
16% warningclass
16:00
23°
1013.9 hPa
82%
15.6°
4
Windvlaag: 0.8 km/h
7%
17:00
23°
1013.6 hPa
82%
15.2°
3
Windvlaag: 0.8 km/h
9%
18:00
23°
1013.7 hPa
82%
15.5°
3
Windvlaag: 0.4 km/h
25%
19:00
23°
1013.9 hPa
82%
15.8°
3
Windvlaag: 0.1 km/h
36%
20:00
22°
1014.4 hPa 1.7 mm
81%
16.4°
3
Windvlaag: 0.2 km/h
44%
21:00
20°
1015.1 hPa
68%
16.3°
2
Windvlaag: 0.2 km/h
54%
22:00
19°
1015.6 hPa
16%
16.1°
2
Windvlaag: 0.7 km/h
70%
23:00
18°
1016.1 hPa
14%
15.9°
2
Windvlaag: -0.1 km/h
65%
 05:34     21:31    Daglengte: 15:57 Morgen
00:00
18°
1016.4 hPa
14%
15.8°
2
Windvlaag: 0.1 km/h
41%
01:00
17°
1016.6 hPa
14%
15.7°
2
Windvlaag: -0.7 km/h
76%
02:00
17°
1016.5 hPa
14%
15.3°
1
Windvlaag: -0.6 km/h
44%
03:00
16°
1016.7 hPa
14%
15.0°
1
Windvlaag: -0.4 km/h
67%
04:00
16°
1016.8 hPa
14%
14.9°
1
Windvlaag: -0.5 km/h
64%
05:00
15°
1017.0 hPa
14%
14.8°
1
Windvlaag: -0.8 km/h
54%
06:00
16°
1017.2 hPa
14%
14.9°
1
Windvlaag: -0.9 km/h
72%
07:00
16°
1017.6 hPa
14%
15.1°
2
Windvlaag: -0.9 km/h
50%
08:00
17°
1017.9 hPa
20%
15.1°
2
Windvlaag: -1 km/h
65%
09:00
18°
1018.1 hPa
28%
15.1°
2
Windvlaag: -1.2 km/h
64%
10:00
19°
1018.2 hPa
66%
15.2°
2
Windvlaag: -1.1 km/h
39%
11:00
20°
1018.1 hPa
70%
15.5°
2
Windvlaag: -1.5 km/h
53%
12:00
21°
1017.7 hPa
34%
15.7°
2
Windvlaag: -1.7 km/h
30%
13:00
23°
1017.2 hPa
36%
15.8°
3
Windvlaag: -2 km/h
47%
14:00
23°
1016.7 hPa
73%
16.1°
3
Windvlaag: -2 km/h
49%
15:00
24°
1016.3 hPa
34%
16.7°
3
Windvlaag: -1.9 km/h
35%
16:00
24°
1016.0 hPa 1.6 mm
30%
16.5°
3
Windvlaag: -1.4 km/h
79%
17:00
23°
1015.8 hPa 1.6 mm
63%
16.2°
3
Windvlaag: -1 km/h
79%
18:00
23°
1015.7 hPa
29%
16.2°
3
Windvlaag: -0.2 km/h
84%
19:00
22°
1015.8 hPa
66%
16.1°
2
Windvlaag: 0.2 km/h
86%
20:00
21°
1015.9 hPa
68%
16.2°
2
Windvlaag: -0.5 km/h
86%
21:00
20°
1016.2 hPa 2.0 mm
74%
15.9°
3
Windvlaag: -1 km/h
89%
22:00
19°
1016.3 hPa 2.0 mm
76%
15.3°
3
Windvlaag: -1 km/h
86%
23:00
18°
1017.6 hPa
95%
13.6°
2
Windvlaag: -0.8 km/h
81% warningclass
 05:34     21:31    Daglengte: 15:57 Zaterdag 22 Jun
00:00
17°
1017.6 hPa
100%
13.4°
2
Windvlaag: -1.1 km/h
70%
01:00
17°
1017.4 hPa
87%
13.3°
2
Windvlaag: -0.7 km/h
70%
02:00
16°
1017.2 hPa
89%
12.7°
1
Windvlaag: -1.2 km/h
60%
03:00
16°
1016.8 hPa
37%
12.1°
1
Windvlaag: -1.3 km/h
53%
04:00
15°
1016.8 hPa
42%
11.6°
1
Windvlaag: -0.9 km/h
70%
05:00
15°
1016.6 hPa
44%
11.1°
1
Windvlaag: -1.5 km/h
70%
06:00
15°
1016.7 hPa
36%
11.3°
1
Windvlaag: -1.7 km/h
84%
07:00
15°
1016.9 hPa
35%
11.4°
1
Windvlaag: -1.2 km/h
82%
08:00
16°
1017.2 hPa
81%
11.5°
1
Windvlaag: -0.8 km/h
90%
09:00
17°
1017.4 hPa
36%
12.2°
1
Windvlaag: 2.4 km/h
88%
10:00
18°
1017.2 hPa
39%
12.9°
1
Windvlaag: 3.4 km/h
90%
11:00
19°
1017.0 hPa
82%
13.7°
1
Windvlaag: 3.1 km/h
78%
12:00
20°
1016.8 hPa
86%
14.5°
1
Windvlaag: 3 km/h
89%
13:00
20°
1016.6 hPa 3.2 mm
97%
15.1°
2
Windvlaag: 3.7 km/h
75%
14:00
21°
1016.3 hPa 3.4 mm
100%
15.7°
2
Windvlaag: 0.6 km/h
75%
15:00
21°
1016.2 hPa 3.6 mm
99%
16.3°
2
Windvlaag: 4 km/h
58% warningclass
16:00
21°
1016.1 hPa 4.1 mm
100%
16.6°
2
Windvlaag: 4.8 km/h
78% warningclass
17:00
21°
1016.0 hPa 3.4 mm
100%
17.0°
2
Windvlaag: 5.5 km/h
86% warningclass
18:00
21°
1016.0 hPa 3.6 mm
97%
17.3°
2
Windvlaag: 6.2 km/h
74%
19:00
20°
1016.2 hPa 3.9 mm
100%
17.4°
2
Windvlaag: 5.4 km/h
75% warningclass
20:00
20°
1016.6 hPa 5.4 mm
100%
17.5°
1
Windvlaag: 0.5 km/h
76% warningclass
21:00
19°
1016.7 hPa 5.1 mm
100%
17.2°
1
Windvlaag: 3 km/h
74% warningclass
22:00
19°
1016.9 hPa 3.8 mm
95%
16.8°
1
Windvlaag: 6.5 km/h
74%
23:00
18°
1017.0 hPa
49%
16.3°
1
Windvlaag: 7.8 km/h
54%
 05:34     21:31    Daglengte: 15:57 Zondag 23 Jun
00:00
18°
1017.1 hPa
34%
15.8°
1
Windvlaag: 5.6 km/h
38%
01:00
17°
1017.2 hPa
26%
15.5°
1
Windvlaag: 4.9 km/h
36%
02:00
17°
1017.3 hPa
24%
15.2°
1
Windvlaag: 0.7 km/h
33%
03:00
17°
1018.4 hPa   15.5°
1
Windvlaag: 0 km/h
77%
Temp/Neerslag /Baro Onweer/Dauwpunt
    Temp Baro Neerslag Dauwpunt Wind Bewolking  
 05:33     21:30    Daglengte: 15:57 Vandaag
05:00
18°
1013.4 hPa 0.5 mm 15.4°
2
67% warningclass
08:00
18°
1014.1 hPa 2.5 mm 16.2°
1
81%
11:00
20°
1014.6 hPa 3.4 mm 16.4°
2
77%
14:00
22°
1014.3 hPa 3.7 mm 16.9°
3
36% warningclass
17:00
23°
1013.6 hPa 1.9 mm 15.2°
3
9%
20:00
22°
1014.4 hPa 1.7 mm 16.4°
3
44%
23:00
18°
1016.1 hPa   15.9°
2
65%
 05:34     21:31    Daglengte: 15:57 Morgen
02:00
17°
1016.5 hPa   15.3°
1
44%
05:00
15°
1017.0 hPa   14.8°
1
54%
08:00
17°
1017.9 hPa   15.1°
2
65%
11:00
20°
1018.1 hPa   15.5°
2
53%
14:00
23°
1016.7 hPa   16.1°
3
49%
17:00
23°
1015.8 hPa 3.2 mm 16.2°
3
79%
20:00
21°
1015.9 hPa   16.2°
2
86%
23:00
18°
1017.6 hPa 4.1 mm 13.6°
2
81% warningclass
 05:34     21:31    Daglengte: 15:57 Zaterdag 22 Jun
02:00
16°
1017.2 hPa   12.7°
1
60%
05:00
15°
1016.6 hPa   11.1°
1
70%
08:00
16°
1017.2 hPa   11.5°
1
90%
11:00
19°
1017.0 hPa   13.7°
1
78%
14:00
21°
1016.3 hPa 6.7 mm 15.7°
2
75%
17:00
21°
1016.0 hPa 11.2 mm 17.0°
2
86% warningclass
20:00
20°
1016.6 hPa 12.9 mm 17.5°
1
76% warningclass
23:00
18°
1017.0 hPa 8.9 mm 16.3°
1
54%
 05:34     21:31    Daglengte: 15:57 Zondag 23 Jun
02:00
17°
1017.3 hPa   15.2°
1
33%
05:00
17°
1018.7 hPa 16.2 mm 15.5°
1
81%
08:00
17°
1018.9 hPa 16.2 mm 15.9°
1
92%
11:00
21°
1018.5 hPa 16.2 mm 16.3°
3
91%
14:00
24°
1018.0 hPa 16.2 mm 15.9°
4
91%
17:00
24°
1017.8 hPa 16.2 mm 16.6°
3
48%
20:00
24°
1017.8 hPa 16.2 mm 17.2°
3
4%
23:00
21°
1018.4 hPa 16.2 mm 16.4°
3
2%
 05:34     21:31    Daglengte: 15:57 Maandag 24 Jun
02:00
18°
1018.9 hPa 16.2 mm 15.5°
2
0%
05:00
19°
1019.2 hPa 16.2 mm 15.8°
3
0%
08:00
19°
1019.4 hPa 16.2 mm 16.2°
3
1%
11:00
23°
1019.2 hPa 16.2 mm 17.6°
3
0%
14:00
27°
1019.0 hPa 16.2 mm 18.4°
3
0%
17:00
27°
1018.8 hPa 16.2 mm 19.1°
3
28%
20:00
26°
1018.7 hPa 16.2 mm 19.7°
2
56%
23:00
23°
1019.7 hPa 16.2 mm 18.1°
3
47%
 05:35     21:31    Daglengte: 15:56 Dinsdag 25 Jun
02:00
20°
1020.5 hPa 16.2 mm 16.5°
3
37%
05:00
20°
1020.8 hPa 16.2 mm 16.5°
3
31%
08:00
21°
1021.1 hPa 16.2 mm 16.7°
3
25%
11:00
25°
1020.6 hPa 16.2 mm 18.6°
2
13%
14:00
30°
1020.2 hPa 16.2 mm 20.0°
2
1%
17:00
29°
1019.8 hPa 16.2 mm 20.2°
2
1%
20:00
28°
1019.5 hPa 16.2 mm 20.4°
2
0%
23:00
24°
1020.1 hPa 16.2 mm 19.2°
2
0%
 05:35     21:31    Daglengte: 15:56 Woensdag 26 Jun
02:00
21°
1020.6 hPa 16.2 mm 17.9°
3
0%
05:00
22°
1020.6 hPa 16.2 mm 18.5°
2
0%
08:00
22°
1020.6 hPa 16.2 mm 19.1°
2
0%
11:00
27°
1020.2 hPa 16.2 mm 20.1°
2
0%
14:00
31°
1019.8 hPa 16.2 mm 20.0°
2
0%
17:00
31°
1019.1 hPa 16.2 mm 21.1°
1
0%
20:00
30°
1018.4 hPa 16.2 mm 22.1°
1
0%
23:00
25°
1018.6 hPa 16.2 mm 20.3°
1
1%
 05:36     21:31    Daglengte: 15:55 Donderdag 27 Jun
02:00
21°
1018.6 hPa 32.4 mm 17.9°
2
3%
08:00
25°
1019.0 hPa 32.4 mm 19.5°
1
0%
14:00
33°
1018.3 hPa 32.4 mm 21.5°
1
0%
20:00
32°
1016.3 hPa 32.4 mm 25.5°
1
0%
 05:36     21:31    Daglengte: 15:55 Vrijdag 28 Jun
02:00
24°
1016.9 hPa 32.4 mm 16.4°
2
0%
08:00
25°
1016.7 hPa 32.4 mm 21.0°
1
0%
14:00
34°
1015.5 hPa 32.6 mm 20.4°
2
0%
20:00
32°
1013.4 hPa 33.9 mm 24.3°
1
0%
 05:37     21:31    Daglengte: 15:54 Zaterdag 29 Jun
02:00
22°
1013.6 hPa 36.5 mm 17.6°
2
38%
08:00
23°
1016.7 hPa 37.1 mm 19.9°
1
0%
14:00
28°
1015.2 hPa 37.2 mm 21.7°
3
1%
20:00
27°
1014.9 hPa 37.2 mm 22.3°
2
1%
 05:37     21:31    Daglengte: 15:54 Zondag 30 Jun
02:00
20°
1014.1 hPa 0.7 mm 17.3°
1
31%
08:00
21°
1014.9 hPa 0.8 mm 18.8°
1
29%
14:00
27°
1014.0 hPa 0.4 mm 19.0°
2
29%
20:00
25°
1014.0 hPa 0.7 mm 20.4°
2
32%
 05:38     21:31    Daglengte: 15:53 Maandag 01 Jul
02:00
17°
1015.2 hPa 0.8 mm 15.1°
2
29%
08:00
19°
1015.4 hPa 0.4 mm 16.2°
2
31%
14:00
24°
1014.5 hPa 0.7 mm 16.1°
3
37%
20:00
22°
1014.6 hPa 2.0 mm 17.5°
2
30%
 05:38     21:30    Daglengte: 15:52 Dinsdag 02 Jul
02:00
14°
1015.7 hPa 0.6 mm 13.0°
1
32%
08:00
16°
1015.6 hPa 0.2 mm 14.1°
1
37%
14:00
21°
1014.5 hPa 0.9 mm 14.1°
3
40%
20:00
19°
1014.8 hPa 0.9 mm 15.1°
2
43%
 05:39     21:30    Daglengte: 15:51 Woensdag 03 Jul
02:00
12°
1015.9 hPa 0.2 mm 10.8°
1
25%
08:00
15°
1015.6 hPa 0.3 mm 12.6°
1
35%
14:00
20°
1014.3 hPa 1.1 mm 13.2°
2
39%
20:00
19°
1014.3 hPa 1.3 mm 14.7°
2
43%
 05:40     21:30    Daglengte: 15:50 Donderdag 04 Jul
02:00
12°
1015.2 hPa 2.4 mm 10.2°
1
32%
08:00
14°
1015.4 hPa 1.2 mm 12.0°
2
40%
14:00
20°
1014.7 hPa 0.9 mm 12.8°
2
39%
20:00
19°
1015.1 hPa 1.0 mm 14.3°
2
42%
 05:41     21:29    Daglengte: 15:48 Vrijdag 05 Jul
02:00
12°
1016.6 hPa 1.3 mm 10.4°
1
36%
  CAPE Lifted Index Hail Supercell Tornado SRH 3km CL BTM PRES CL TOP PRES Swiss DWD icon SMHI TS
 05:33     21:30    Daglengte: 15:57 Vandaag
04:00 0 J/kg -2.9 K 0 % 0 % 0 % 0 m²/s² 0 0 -1.25 3
05:00 0 J/kg -3.5 K 0 % 0 % 0 % 0 m²/s² 0 0 -2.45 95
06:00 0 J/kg -2.3 K 0 % 0 % 0 % 0 m²/s² 0 0 -1.58 95
07:00 114 J/kg -1.5 K 0 % 0 % 0 % 0 m²/s² 0 0 -1.29 80
08:00 269 J/kg -1.7 K 0 % 0 % 0 % 0 m²/s² 0 0 -1.7 3
09:00 265 J/kg -1.6 K 0 % 0 % 0 % 0 m²/s² 0 0 -1.48 3
10:00 139 J/kg -1.3 K 0 % 0 % 0 % 0 m²/s² 0 0 -0.64 80
11:00 340 J/kg -2.0 K 0 % 0 % 0 % 0 m²/s² 0 0 -1.34 3
12:00 278 J/kg -1.6 K 0 % 0 % 0 % 0 m²/s² 0 0 -0.4 3
13:00 507 J/kg -2.5 K 0 % 0 % 0 % 0 m²/s² 0 0 -1.51 80
14:00 955 J/kg -4.2 K 0 % 0 % 0 % 0 m²/s² 0 0 -2.61 3
15:00 831 J/kg -3.8 K 0 % 0 % 0 % 0 m²/s² 0 0 -2.45 1
16:00 680 J/kg -3.4 K 0 % 0 % 0 % 0 m²/s² 0 0 -1.63 2
17:00 619 J/kg -3.3 K 0 % 0 % 0 % 0 m²/s² 0 0 -1.35 3
18:00 568 J/kg -3.1 K 0 % 0 % 0 % 0 m²/s² 0 0 -1.15 2
19:00 546 J/kg -3.0 K 0 % 0 % 0 % 0 m²/s² 0 0 -1.29 1
20:00 487 J/kg -2.5 K 0 % 0 % 0 % 0 m²/s² 0 0 -0.85 1
21:00 547 J/kg -2.6 K 0 % 0 % 0 % 0 m²/s² 0 0 -0.95 3
22:00 422 J/kg -2.2 K 0 % 0 % 0 % 0 m²/s² 0 0 -0.37 3
23:00 385 J/kg -2.1 K 0 % 0 % 0 % 0 m²/s² 0 0 -0.09 3
 05:34     21:31    Daglengte: 15:57 Morgen
00:00 304 J/kg -1.9 K 0 % 0 % 0 % 0 m²/s² 0 0 -0.07 3
01:00 290 J/kg -2.0 K 0 % 0 % 0 % 0 m²/s² 0 0 -0.35 3
02:00 238 J/kg -1.9 K 0 % 0 % 0 % 0 m²/s² 0 0 -0.31 3
03:00 185 J/kg -1.8 K 0 % 0 % 0 % 0 m²/s² 0 0 -0.21 3
04:00 69 J/kg -1.3 K 0 % 0 % 0 % 0 m²/s² 0 0 0.47 3
05:00 0 J/kg -0.9 K 0 % 0 % 0 % 0 m²/s² 0 0 0.93 2
06:00 0 J/kg -0.6 K 0 % 0 % 0 % 0 m²/s² 0 0 1.05 3
07:00 0 J/kg -0.5 K 0 % 0 % 0 % 0 m²/s² 0 0 1.09 3
08:00 0 J/kg -0.2 K 0 % 0 % 0 % 0 m²/s² 0 0 1.33 3
09:00 87 J/kg -0.3 K 0 % 0 % 0 % 0 m²/s² 0 0 1.83 3
10:00 304 J/kg -1.2 K 0 % 0 % 0 % 0 m²/s² 0 0 1.02 2
11:00 459 J/kg -1.6 K 0 % 0 % 0 % 0 m²/s² 0 0 0.74 2
12:00 501 J/kg -1.7 K 0 % 0 % 0 % 0 m²/s² 0 0 0.88 3
13:00 545 J/kg -1.9 K 0 % 0 % 0 % 0 m²/s² 0 0 0.77 2
14:00 674 J/kg -2.3 K 0 % 0 % 0 % 0 m²/s² 0 0 0.01 2
15:00 709 J/kg -2.6 K 0 % 0 % 0 % 0 m²/s² 0 0 -0.77 2
16:00 677 J/kg -2.4 K 0 % 0 % 0 % 0 m²/s² 0 0 -0.93 3
17:00 736 J/kg -2.8 K 0 % 0 % 0 % 0 m²/s² 0 0 -1.66 3
18:00 874 J/kg -3.7 K 0 % 0 % 0 % 0 m²/s² 0 0 -2.74 3
19:00 896 J/kg -3.0 K 0 % 0 % 0 % 0 m²/s² 0 0 -2.28 3
20:00 510 J/kg -2.7 K 0 % 0 % 0 % 0 m²/s² 0 0 -1.89 80
21:00 444 J/kg -2.6 K 0 % 0 % 0 % 0 m²/s² 0 0 -1.88 80
22:00 171 J/kg -1.3 K 0 % 0 % 0 % 0 m²/s² 0 0 -0.4 80
23:00 0 J/kg 0.7 K 0 % 0 % 0 % 0 m²/s² 0 0 1.42 95
 05:34     21:31    Daglengte: 15:57 Zaterdag 22 Jun
00:00 0 J/kg -0.7 K 0 % 0 % 0 % 0 m²/s² 0 0 0.32 80
01:00 3 J/kg -0.4 K 0 % 0 % 0 % 0 m²/s² 0 0 0.86 3
02:00 0 J/kg 0.6 K 0 % 0 % 0 % 0 m²/s² 0 0 1.92 3
03:00 0 J/kg 0.6 K 0 % 0 % 0 % 0 m²/s² 0 0 1.41 3
04:00 0 J/kg 0.6 K 0 % 0 % 0 % 0 m²/s² 0 0 1.65 3
05:00 0 J/kg 0.6 K 0 % 0 % 0 % 0 m²/s² 0 0 1.35 3
06:00 0 J/kg 0.6 K 0 % 0 % 0 % 0 m²/s² 0 0 1.32 3
07:00 0 J/kg 0.5 K 0 % 0 % 0 % 0 m²/s² 0 0 0.89 3
08:00 0 J/kg 0.7 K 0 % 0 % 0 % 0 m²/s² 0 0 1.18 3
09:00 0 J/kg 0.5 K 0 % 0 % 0 % 0 m²/s² 0 0 0.92 3
10:00 76 J/kg -0.3 K 0 % 0 % 0 % 0 m²/s² 0 0 -0.03 3
11:00 239 J/kg -1.4 K 0 % 0 % 0 % 0 m²/s² 0 0 -0.8 3
12:00 551 J/kg -2.4 K 0 % 0 % 0 % 0 m²/s² 0 0 -1.26 3
13:00 900 J/kg -3.5 K 0 % 0 % 0 % 0 m²/s² 0 0 -1.91 3
14:00 1127 J/kg -3.7 K 0 % 0 % 0 % 0 m²/s² 0 0 -1.81 80
15:00 1488 J/kg -4.7 K 0 % 0 % 0 % 0 m²/s² 0 0 -2.78 80
16:00 1635 J/kg -5.1 K 0 % 0 % 0 % 0 m²/s² 0 0 -3.06 80
17:00 1559 J/kg -4.6 K 0 % 0 % 0 % 0 m²/s² 0 0 -2.5 3
18:00 1415 J/kg -4.0 K 0 % 0 % 0 % 0 m²/s² 0 0 -1.96 80
19:00 1398 J/kg -4.4 K 0 % 0 % 0 % 0 m²/s² 0 0 -2.9 80
20:00 1324 J/kg -4.2 K 0 % 0 % 0 % 0 m²/s² 0 0 -3.03 81
21:00 1016 J/kg -3.0 K 0 % 0 % 0 % 0 m²/s² 0 0 -1.74 95
22:00 809 J/kg -2.3 K 0 % 0 % 0 % 0 m²/s² 0 0 -0.98 3
23:00 170 J/kg -1.7 K 0 % 0 % 0 % 0 m²/s² 0 0 -0.44 2
 05:34     21:31    Daglengte: 15:57 Zondag 23 Jun
00:00 0 J/kg -0.6 K 0 % 0 % 0 % 0 m²/s² 0 0 1.2 2
01:00 0 J/kg 0.1 K 0 % 0 % 0 % 0 m²/s² 0 0 2.74 2
02:00 0 J/kg 0.8 K 0 % 0 % 0 % 0 m²/s² 0 0 3.62 2
03:00 0 J/kg 0.0 K 0 % 0 % 0 % 0 m²/s² 0 0 13.83
Temp Baro Wind Neerslag
  EWN Forecast EWN WRFDA DWD ICON FMI HIRLAM MET Norway GFS
 05:33     21:30    Daglengte: 15:57 Vandaag
05:00 17.6° 1013.4 hPa 2.0 m/s 0.5 mm 16.7° 1012.1 hPa 2.1 m/s 1.1 mm 17.2° 1013.8 hPa 1.4 m/s -1.0 mm 18.3° 1014.0 hPa 3.3 m/s 0.0 mm 17.3° 1013.4 hPa 0.9 m/s 0.7 mm 17.4° 1014.6 hPa 0.7 m/s
08:00 18.2° 1014.1 hPa 1.4 m/s 2.5 mm 17.4° 1013.1 hPa 2.4 m/s 8.7 mm 17.8° 1014.5 hPa 0.7 m/s 2.1 mm 18.2° 1014.9 hPa 2.6 m/s 0.0 mm 18.4° 1014.0 hPa 0.7 m/s 0.0 mm 17.8° 1015.0 hPa 1.2 m/s
11:00 20.0° 1014.6 hPa 2.1 m/s 3.4 mm 18.6° 1014.3 hPa 3.1 m/s 17.4 mm 20.3° 1015.2 hPa 2.0 m/s 0.3 mm 20.9° 1014.8 hPa 1.7 m/s 0.0 mm 19.5° 1014.5 hPa 2.8 m/s 2.5 mm 19.5° 1015.5 hPa 2.4 m/s
14:00 22.0° 1014.3 hPa 2.5 m/s 3.7 mm 22.4° 1013.5 hPa 3.1 m/s 21.2 mm 21.8° 1015.4 hPa 2.4 m/s 0.9 mm 23.8° 1013.7 hPa 3.4 m/s 0.0 mm 20.2° 1014.9 hPa 2.4 m/s 7.0 mm 22.6° 1015.1 hPa 3.3 m/s
17:00 23.5° 1013.6 hPa 3.3 m/s 1.9 mm 23.7° 1012.8 hPa 4.6 m/s 21.2 mm 23.1° 1014.0 hPa 3.6 m/s 0.2 mm 24.2° 1013.6 hPa 3.5 m/s 0.0 mm 23.0° 1013.7 hPa 1.5 m/s 0.0 mm 22.9° 1014.1 hPa 3.8 m/s
20:00 21.5° 1014.4 hPa 2.9 m/s 1.7 mm 22.2° 1013.4 hPa 3.7 m/s 21.2 mm 21.0° 1015.5 hPa 2.5 m/s 0.2 mm 22.1° 1014.1 hPa 2.9 m/s 0.0 mm 20.4° 1014.7 hPa 2.8 m/s 1.4 mm 20.7° 1015.6 hPa 3.3 m/s
23:00 18.3° 1016.1 hPa 2.0 m/s 0.0 mm 17.8° 1014.7 hPa 1.3 m/s 21.2 mm 18.3° 1016.2 hPa 1.1 m/s 0.1 mm 19.2° 1015.9 hPa 2.1 m/s 0.0 mm 17.4° 1016.4 hPa 2.1 m/s 0.0 mm 17.0° 1017.1 hPa 1.8 m/s
 05:34     21:31    Daglengte: 15:57 Morgen
02:00 16.7° 1016.5 hPa 1.4 m/s 0.0 mm 15.7° 1015.6 hPa 1.0 m/s 21.3 mm 16.7° 1016.9 hPa 0.8 m/s 0.0 mm 16.9° 1016.2 hPa 1.7 m/s 0.0 mm 16.0° 1016.6 hPa 1.5 m/s 0.0 mm 15.5° 1017.4 hPa 0.5 m/s
05:00 15.3° 1017.0 hPa 1.3 m/s 0.0 mm 13.9° 1015.5 hPa 1.5 m/s 21.3 mm 15.4° 1017.4 hPa 0.8 m/s 0.0 mm 15.1° 1016.3 hPa 1.5 m/s 0.0 mm 15.3° 1017.1 hPa 1.1 m/s 0.0 mm 14.4° 1017.7 hPa 0.5 m/s
08:00 16.8° 1017.9 hPa 2.2 m/s 0.0 mm 16.9° 1016.2 hPa 2.5 m/s 21.3 mm 17.0° 1018.3 hPa 1.3 m/s 0.0 mm 16.4° 1015.9 hPa 1.8 m/s 0.0 mm 16.9° 1018.2 hPa 2.5 m/s 0.0 mm 16.4° 1018.3 hPa 1.3 m/s
11:00 20.1° 1018.1 hPa 2.2 m/s 0.0 mm 20.7° 1016.4 hPa 3.3 m/s 21.3 mm 20.8° 1018.4 hPa 1.6 m/s 0.0 mm 21.2° 1014.7 hPa 2.6 m/s 0.0 mm 18.7° 1019.0 hPa 2.2 m/s 0.3 mm 19.4° 1018.1 hPa 2.1 m/s
14:00 23.5° 1016.7 hPa 2.8 m/s 0.0 mm 23.4° 1014.9 hPa 4.8 m/s 21.3 mm 23.9° 1017.3 hPa 1.9 m/s 0.0 mm 24.4° 1012.5 hPa 4.7 m/s 0.0 mm 21.6° 1017.7 hPa 2.5 m/s 0.0 mm 21.4° 1017.3 hPa 3.1 m/s
17:00 23.5° 1015.8 hPa 3.2 m/s 3.2 mm 24.0° 1014.4 hPa 5.5 m/s 21.3 mm 23.9° 1016.1 hPa 2.9 m/s 0.0 mm 23.9° 1011.1 hPa 5.9 m/s 0.0 mm 22.0° 1017.4 hPa 2.2 m/s 0.3 mm 22.2° 1017.0 hPa 3.8 m/s
20:00 20.7° 1015.9 hPa 2.4 m/s 0.0 mm 21.8° 1013.5 hPa 4.9 m/s 23.5 mm 20.4° 1017.2 hPa 1.9 m/s 0.2 mm 21.0° 1009.0 hPa 3.6 m/s 0.0 mm 20.0° 1018.0 hPa 1.8 m/s 0.0 mm 19.7° 1017.2 hPa 1.3 m/s
23:00 17.6° 1017.6 hPa 1.8 m/s 4.1 mm 17.4° 1014.8 hPa 2.4 m/s 27.5 mm 17.7° 1018.0 hPa 0.9 m/s 2.0 mm 17.4° 1018.6 hPa 1.8 m/s 0.0 mm 17.5° 1018.0 hPa 1.7 m/s
 05:34     21:31    Daglengte: 15:57 Zaterdag 22 Jun
02:00 16.1° 1017.2 hPa 1.5 m/s 0.0 mm 15.9° 1013.7 hPa 3.1 m/s 28.3 mm 16.2° 1017.7 hPa 0.9 m/s 1.1 mm 15.9° 1018.1 hPa 1.2 m/s 0.0 mm 16.4° 1017.3 hPa 1.2 m/s
05:00 14.9° 1016.6 hPa 1.2 m/s 0.0 mm 13.7° 1012.8 hPa 1.1 m/s 28.3 mm 15.5° 1017.2 hPa 1.0 m/s 0.0 mm 14.7° 1017.6 hPa 0.9 m/s 0.0 mm 15.3° 1016.4 hPa 1.2 m/s
08:00 15.9° 1017.2 hPa 1.4 m/s 0.0 mm 16.8° 1013.0 hPa 2.2 m/s 28.3 mm 15.6° 1017.7 hPa 1.4 m/s 0.0 mm 15.8° 1018.2 hPa 0.8 m/s 0.0 mm 16.2° 1017.1 hPa 1.6 m/s
11:00 18.5° 1017.0 hPa 1.3 m/s 0.0 mm 20.5° 1013.5 hPa 3.1 m/s 28.3 mm 18.2° 1017.3 hPa 0.9 m/s 0.0 mm 18.3° 1017.5 hPa 1.2 m/s 16.8° 1017.1 hPa 2.2 m/s
14:00 21.1° 1016.3 hPa 1.7 m/s 6.7 mm 24.3° 1012.9 hPa 3.9 m/s 28.3 mm 20.3° 1016.8 hPa 0.9 m/s 0.6 mm 20.8° 1016.7 hPa 1.6 m/s 18.6° 1017.0 hPa 2.5 m/s
17:00 20.8° 1016.0 hPa 1.9 m/s 11.2 mm 24.4° 1012.2 hPa 5.4 m/s 28.6 mm 21.2° 1015.8 hPa 0.6 m/s 2.5 mm 19.8° 1016.9 hPa 1.7 m/s 19.7° 1016.5 hPa 2.2 m/s
20:00 19.8° 1016.6 hPa 1.2 m/s 12.9 mm 22.9° 1013.4 hPa 0.5 m/s 30.2 mm 20.5° 1016.8 hPa 0.7 m/s 4.2 mm 18.7° 1017.0 hPa 1.8 m/s 19.4° 1017.4 hPa 0.8 m/s
23:00 18.1° 1017.0 hPa 1.3 m/s 8.9 mm 19.1° 1014.1 hPa 3.6 m/s 33.2 mm 18.5° 1017.1 hPa 0.5 m/s 2.3 mm 17.6° 1017.5 hPa 1.2 m/s 16.4° 1018.4 hPa 0.8 m/s
 05:34     21:31    Daglengte: 15:57 Zondag 23 Jun
02:00 16.7° 1017.3 hPa 0.8 m/s 0.0 mm 16.3° 1014.5 hPa 2.3 m/s 33.3 mm 17.2° 1017.0 hPa 0.6 m/s 0.0 mm 16.6° 1018.1 hPa 0.6 m/s 14.7° 1018.4 hPa 0.6 m/s
05:00 16.6° 1018.7 hPa 1.2 m/s 16.2 mm 16.8° 1018.7 hPa 1.2 m/s 14.0° 1018.1 hPa 0.8 m/s 16.2 mm
08:00 16.9° 1018.9 hPa 1.5 m/s 16.2 mm 16.9° 1019.0 hPa 1.5 m/s 16.6° 1018.2 hPa 1.2 m/s 16.2 mm
11:00 20.5° 1018.5 hPa 2.6 m/s 16.2 mm 20.5° 1018.5 hPa 2.6 m/s 20.5° 1017.9 hPa 2.4 m/s 16.2 mm
14:00 24.1° 1018.0 hPa 3.6 m/s 16.2 mm 24.1° 1018.1 hPa 3.7 m/s 24.4° 1017.0 hPa 2.6 m/s 16.2 mm
17:00 24.0° 1017.8 hPa 3.4 m/s 16.2 mm 24.0° 1018.0 hPa 3.5 m/s 25.1° 1016.6 hPa 2.6 m/s 16.2 mm
20:00 23.7° 1017.8 hPa 3.1 m/s 16.2 mm 23.8° 1017.8 hPa 3.3 m/s 23.0° 1017.7 hPa 1.1 m/s 16.2 mm
23:00 20.9° 1018.4 hPa 2.7 m/s 16.2 mm 21.1° 1018.3 hPa 2.8 m/s 19.3° 1019.3 hPa 1.0 m/s 16.2 mm
 05:34     21:31    Daglengte: 15:57 Maandag 24 Jun
02:00 18.3° 1018.9 hPa 2.3 m/s 16.2 mm 18.3° 1018.9 hPa 2.4 m/s 17.9° 1019.3 hPa 1.3 m/s 16.2 mm
05:00 18.6° 1019.2 hPa 2.5 m/s 16.2 mm 18.8° 1019.1 hPa 2.6 m/s 16.9° 1019.2 hPa 1.0 m/s 16.2 mm
08:00 19.3° 1019.4 hPa 2.8 m/s 16.2 mm 19.2° 1019.4 hPa 2.9 m/s 20.0° 1019.9 hPa 1.3 m/s 16.2 mm
11:00 23.3° 1019.2 hPa 3.0 m/s 16.2 mm 23.0° 1019.2 hPa 3.1 m/s 25.6° 1019.4 hPa 1.6 m/s 16.2 mm
14:00 27.1° 1019.0 hPa 3.2 m/s 16.2 mm 26.9° 1019.0 hPa 3.3 m/s 29.0° 1019.1 hPa 2.0 m/s 16.2 mm
17:00 26.7° 1018.8 hPa 2.8 m/s 16.2 mm 26.5° 1018.9 hPa 2.8 m/s 29.5° 1018.7 hPa 2.1 m/s 16.2 mm
20:00 26.2° 1018.7 hPa 2.3 m/s 16.2 mm 26.1° 1018.7 hPa 2.4 m/s 27.2° 1018.9 hPa 1.6 m/s 16.2 mm
23:00 22.9° 1019.7 hPa 2.5 m/s 16.2 mm 23.0° 1019.6 hPa 2.6 m/s 22.1° 1020.3 hPa 1.4 m/s 16.2 mm
 05:35     21:31    Daglengte: 15:56 Dinsdag 25 Jun
02:00 19.9° 1020.5 hPa 2.8 m/s 16.2 mm 19.8° 1020.5 hPa 2.9 m/s 20.4° 1020.3 hPa 1.2 m/s 16.2 mm
05:00 20.2° 1020.8 hPa 2.7 m/s 16.2 mm 20.3° 1020.9 hPa 2.8 m/s 19.4° 1019.8 hPa 1.4 m/s 16.2 mm
08:00 20.9° 1021.1 hPa 2.6 m/s 16.2 mm 20.8° 1021.2 hPa 2.7 m/s 21.9° 1019.8 hPa 1.6 m/s 16.2 mm
11:00 25.3° 1020.6 hPa 2.5 m/s 16.2 mm 25.1° 1020.8 hPa 2.5 m/s 28.1° 1019.4 hPa 1.7 m/s 16.2 mm
14:00 29.6° 1020.2 hPa 2.4 m/s 16.2 mm 29.3° 1020.3 hPa 2.4 m/s 32.5° 1019.3 hPa 1.9 m/s 16.2 mm
17:00 28.9° 1019.8 hPa 2.2 m/s 16.2 mm 28.5° 1019.9 hPa 2.2 m/s 33.4° 1019.0 hPa 1.9 m/s 16.2 mm
20:00 27.9° 1019.5 hPa 2.0 m/s 16.2 mm 27.7° 1019.5 hPa 2.1 m/s 30.3° 1019.4 hPa 1.3 m/s 16.2 mm
23:00 24.4° 1020.1 hPa 2.3 m/s 16.2 mm 24.4° 1020.0 hPa 2.5 m/s 24.9° 1021.1 hPa 1.1 m/s 16.2 mm
 05:35     21:31    Daglengte: 15:56 Woensdag 26 Jun
02:00 21.2° 1020.6 hPa 2.7 m/s 16.2 mm 21.0° 1020.6 hPa 2.8 m/s 22.8° 1020.8 hPa 1.2 m/s 16.2 mm
05:00 21.7° 1020.6 hPa 2.4 m/s 16.2 mm 21.6° 1020.6 hPa 2.5 m/s 21.8° 1020.4 hPa 1.4 m/s 16.2 mm
08:00 22.5° 1020.6 hPa 2.1 m/s 16.2 mm 22.3° 1020.6 hPa 2.2 m/s 24.2° 1020.3 hPa 1.5 m/s 16.2 mm
11:00 27.0° 1020.2 hPa 1.8 m/s 16.2 mm 26.7° 1020.2 hPa 1.9 m/s 30.1° 1019.7 hPa 1.6 m/s 16.2 mm
14:00 31.4° 1019.8 hPa 1.5 m/s 16.2 mm 31.1° 1019.9 hPa 1.5 m/s 34.6° 1018.8 hPa 1.7 m/s 16.2 mm
17:00 31.0° 1019.1 hPa 1.4 m/s 16.2 mm 30.6° 1019.2 hPa 1.4 m/s 34.8° 1017.5 hPa 1.8 m/s 16.2 mm
20:00 30.3° 1018.4 hPa 1.3 m/s 16.2 mm 30.2° 1018.5 hPa 1.3 m/s 31.4° 1017.6 hPa 1.2 m/s 16.2 mm
23:00 25.4° 1018.6 hPa 1.5 m/s 16.2 mm 25.3° 1018.6 hPa 1.6 m/s 26.1° 1018.2 hPa 0.3 m/s 16.2 mm
 05:36     21:31    Daglengte: 15:55 Donderdag 27 Jun
02:00 20.7° 1018.6 hPa 1.8 m/s 16.2 mm 20.4° 1018.7 hPa 1.9 m/s 23.9° 1018.0 hPa 1.1 m/s 16.2 mm
08:00 24.6° 1019.0 hPa 1.5 m/s 16.2 mm 24.5° 1019.1 hPa 1.5 m/s 25.6° 1017.6 hPa 1.2 m/s 16.2 mm
14:00 33.2° 1018.3 hPa 0.8 m/s 16.2 mm 32.9° 1018.5 hPa 0.8 m/s 35.9° 1015.9 hPa 1.2 m/s 16.2 mm
20:00 31.6° 1016.3 hPa 1.2 m/s 16.2 mm 31.7° 1016.4 hPa 1.1 m/s 30.6° 1014.8 hPa 2.9 m/s 16.2 mm
 05:36     21:31    Daglengte: 15:55 Vrijdag 28 Jun
02:00 23.5° 1016.9 hPa 2.5 m/s 16.2 mm 23.4° 1017.0 hPa 2.6 m/s 24.8° 1016.0 hPa 1.3 m/s 16.2 mm
08:00 25.5° 1016.7 hPa 1.4 m/s 16.2 mm 25.4° 1016.8 hPa 1.4 m/s 26.3° 1015.9 hPa 0.8 m/s 16.2 mm
14:00 33.6° 1015.5 hPa 1.6 m/s 16.3 mm 33.8° 1015.6 hPa 1.4 m/s 31.5° 1015.0 hPa 3.3 m/s 16.3 mm
20:00 31.5° 1013.4 hPa 1.4 m/s 17.4 mm 31.9° 1013.3 hPa 1.2 m/s 27.7° 1014.6 hPa 3.1 m/s 17.4 mm
 05:37     21:31    Daglengte: 15:54 Zaterdag 29 Jun
02:00 22.0° 1013.6 hPa 2.4 m/s 18.5 mm 22.0° 1013.3 hPa 2.6 m/s 22.5° 1016.5 hPa 0.8 m/s 18.5 mm
08:00 22.8° 1016.7 hPa 0.9 m/s 18.6 mm 22.8° 1016.7 hPa 0.9 m/s 18.6 mm
14:00 28.2° 1015.2 hPa 2.7 m/s 18.6 mm 28.2° 1015.2 hPa 2.7 m/s 18.6 mm
20:00 27.0° 1014.9 hPa 1.7 m/s 18.6 mm 27.0° 1014.9 hPa 1.7 m/s 18.6 mm
 05:37     21:31    Daglengte: 15:54 Zondag 30 Jun
02:00 19.7° 1014.1 hPa 0.8 m/s 0.7 mm
08:00 21.4° 1014.9 hPa 1.2 m/s 0.8 mm
14:00 27.0° 1014.0 hPa 2.2 m/s 0.4 mm
20:00 25.3° 1014.0 hPa 1.8 m/s 0.7 mm
 05:38     21:31    Daglengte: 15:53 Maandag 01 Jul
02:00 17.1° 1015.2 hPa 1.6 m/s 0.8 mm
08:00 18.8° 1015.4 hPa 1.9 m/s 0.4 mm
14:00 23.7° 1014.5 hPa 2.7 m/s 0.7 mm
20:00 21.9° 1014.6 hPa 1.9 m/s 2.0 mm
 05:38     21:30    Daglengte: 15:52 Dinsdag 02 Jul
02:00 14.5° 1015.7 hPa 1.0 m/s 0.6 mm
08:00 16.3° 1015.6 hPa 1.5 m/s 0.2 mm
14:00 20.8° 1014.5 hPa 2.7 m/s 0.9 mm
20:00 19.4° 1014.8 hPa 1.9 m/s 0.9 mm
 05:39     21:30    Daglengte: 15:51 Woensdag 03 Jul
02:00 12.1° 1015.9 hPa 1.3 m/s 0.2 mm
08:00 14.9° 1015.6 hPa 1.3 m/s 0.3 mm
14:00 20.1° 1014.3 hPa 2.1 m/s 1.1 mm
20:00 18.8° 1014.3 hPa 1.7 m/s 1.3 mm
 05:40     21:30    Daglengte: 15:50 Donderdag 04 Jul
02:00 11.5° 1015.2 hPa 1.5 m/s 2.4 mm
08:00 14.1° 1015.4 hPa 1.7 m/s 1.2 mm
14:00 19.7° 1014.7 hPa 2.3 m/s 0.9 mm
20:00 18.5° 1015.1 hPa 1.5 m/s 1.0 mm
 05:41     21:29    Daglengte: 15:48 Vrijdag 05 Jul
02:00 11.7° 1016.6 hPa 1.4 m/s 1.3 mm
FMI Hirlam - 7.5 km EWN WRFDA - 12 km DWD ICON - 7 km GFS - 25 km Basiskaart






























































Updatetijd (Europe/Amsterdam) Resolutie Lengte Stap
FMI Hirlam 01:15, 07:15, 13:15, 19:15 7.5 km 49h 1h
EWN WRFDA 22:15, 04:15, 10:15, 16:15 12 km 73h 1h
DWD ICON 23:45, 05:45, 11:45, 17:45 7 km 75h 1h
GFS 02:30, 08:30, 14:30, 20:30 25 km 237h 3h
30+ mm
25-30 mm
20-25 mm
15-20 mm
10-15 mm
6-10 mm
4-6 mm
2-4 mm
1-2 mm
0.5-1 mm
0.2-0.5 mm
0.1-0.2 mm
30+ mm
25-30 mm
20-25 mm
15-20 mm
10-15 mm
6-10 mm
4-6 mm
2-4 mm
1-2 mm
0.5-1 mm
0.2-0.5 mm
0.1-0.2 mm
Sneeuwval
Natte sneeuw
Hagel
Vorst
30+ mm
25-30 mm
20-25 mm
15-20 mm
10-15 mm
6-10 mm
4-6 mm
2-4 mm
1-2 mm
0.5-1 mm
0.2-0.5 mm
0.1-0.2 mm
Sneeuwval
Natte sneeuw
Hagel
Vorst
Onweer
50 mm
40 mm
30 mm
26 mm
22 mm
18 mm
14 mm
10 mm
9 mm
8 mm
7 mm
6 mm
5 mm
4.5 mm
4 mm
3.5 mm
3 mm
2.5 mm
2 mm
1.5 mm
1 mm
0.8 mm
0.6 mm
0.4 mm
0.2 mm
0.05 mm
35°
30°
25°
20°
15°
10°
-5°
-10°
-15°
-20°
-25°
-30°
-35°
120> km/h
105 km/h
90 km/h
75 km/h
60 km/h
50 km/h
40 km/h
30 km/h
20 km/h
10 km/h
0 km/h
2600 J/kg
2400 J/kg
2200 J/kg
2000 J/kg
1800 J/kg
1600 J/kg
1400 J/kg
1200 J/kg
1000 J/kg
800 J/kg
600 J/kg
400 J/kg
200 J/kg
70 dBZ
65 dBZ
60 dBZ
55 dBZ
50 dBZ
45 dBZ
40 dBZ
35 dBZ
30 dBZ
25 dBZ
20 dBZ
15 dBZ
10 dBZ
5 dBZ
-1 K
-2 K
-3 K
-4 K
-5 K
-6 K
-7 K
-8 K
-9 K
950 m²/s²
900 m²/s²
850 m²/s²
800 m²/s²
750 m²/s²
700 m²/s²
650 m²/s²
600 m²/s²
550 m²/s²
500 m²/s²
450 m²/s²
400 m²/s²
350 m²/s²
300 m²/s²
250 m²/s²
200 m²/s²
150 m²/s²
100 m²/s²
46 m/s
44 m/s
42 m/s
40 m/s
38 m/s
36 m/s
34 m/s
32 m/s
30 m/s
28 m/s
26 m/s
24 m/s
22 m/s
20 m/s
16 m/s
12 m/s
8 m/s
4 m/s
30 m/s
28 m/s
26 m/s
24 m/s
22 m/s
20 m/s
18 m/s
16 m/s
14 m/s
12 m/s
10 m/s
8 m/s
6 m/s
4 m/s
2 m/s
3.0
2.8
2.6
2.4
2.2
2.0
1.8
1.6
1.4
1.2
1.0
0.8
0.6
0.4
0.2
15
14
13
12
11
10
9
8
7
6
5
4
3
2
1
90%
80%
70%
60%
50%
40%
30%
20%
10%
42
40
38
36
34
32
30
28
26
24
22
20
18
16
14
12
90+ cm
80-90 cm
70-80 cm
60-70 cm
50-60 cm
40-50 cm
30-40 cm
20-30 cm
10-20 cm
1-10 cm
Sneeuwval
Natte sneeuw
Regen
>120 mm
115 mm
110 mm
105 mm
100 mm
95 mm
90 mm
85 mm
80 mm
75 mm
70 mm
65 mm
60 mm
55 mm
50 mm
45 mm
45 mm
40 mm
35 mm
30 mm
25 mm
20 mm
15 mm
10 mm
5 mm
0.1 mm
960 hPa
880 hPa
800 hPa
720 hPa
640 hPa
560 hPa
584 gpdm
568 gpdm
552 gpdm
536 gpdm
520 gpdm
504 gpdm
488 gpdm
Extreem zwaar Noodweer Kans op onweer
15% 15% 5% 50% 15%

Dag




Kaart






35°
30°
25°
20°
15°
10°
-5°
-10°
-15°
-20°
-25°
-30°
-35°
120> km/h
105 km/h
90 km/h
75 km/h
60 km/h
50 km/h
40 km/h
30 km/h
20 km/h
10 km/h
0 km/h
Extreem zwaar Noodweer Kans op onweer
15% 15% 5% 50% 15%
>120 mm
115 mm
110 mm
105 mm
100 mm
95 mm